Regional Weather Roundup
Issued by NWS

Home | Current Version | Previous Version | Text Only | Print | Product List | Glossary Off
Versions: 1 2 3 4 5 6 7 8 9 10 11 12 13 14 15 16 17 18 19 20 21 22 23 24 25 26 27 28 29 30 31 32 33 34 35 36 37 38 39 40 41 42 43 44 45 46 47 48 49 50

000
ASUS45 KTFX 290404
RWRMT
MONTANA REGIONAL WEATHER ROUNDUP
NATIONAL WEATHER SERVICE GREAT FALLS MT
1000 PM MDT FRI AUG 28 2015

NOTE: "FAIR" INDICATES FEW OR NO CLOUDS BELOW 12000 FEET WITH NO
SIGNIFICANT WEATHER AND/OR OBSTRUCTIONS TO VISIBILITY.

MTZ001>007-043-290500-
WEST OF THE DIVIDE

CITY           SKY/WX    TMP DP  RH WIND       PRES   REMARKS
KALISPELL      CLOUDY    67  43  41 CALM      29.95S SMOKE
MISSOULA       CLOUDY    68  50  52 CALM      30.01R HAZE
BUTTE          CLOUDY    68  38  33 N6        30.15R HAZE
MULLAN PASS    CLOUDY    58  39  49 S7        30.13S HAZE
DEER LODGE       N/A     70  39  32 CALM      30.13R
EUREKA           N/A     73  41  31 SE6       29.94S
HAMILTON         N/A     73  45  35 SW2       30.01S
LIBBY            N/A     70  43  37 CALM      29.94S
$$

MTZ008-052>055-290500-
SOUTHWEST MONTANA

CITY           SKY/WX    TMP DP  RH WIND       PRES   REMARKS
BOZEMAN        CLOUDY    73  44  35 S12       30.04R
DILLON         MOCLDY    70  36  28 SE9       30.07R
W YELLOWSTONE  PTCLDY    55  32  41 CALM      30.25R
$$

MTZ009-010-012-014-046-048-049-054-290500-
EAST SLOPES AND CENTRAL MONTANA

CITY           SKY/WX    TMP DP  RH WIND       PRES   REMARKS
CUT BANK       CLOUDY    73  38  27 W18       29.96R HAZE
GREAT FALLS    CLOUDY    77  40  26 W16       29.99R HAZE
MALMSTROM AFB  CLOUDY    78  41  26 W17G24    29.99R
HELENA         MOCLDY    75  40  28 SE7       30.04R SMOKE
$$

MTZ011-013-016-021-045-047-050-051-290500-
NORTH CENTRAL MONTANA

CITY           SKY/WX    TMP DP  RH WIND       PRES   REMARKS
HAVRE          CLOUDY    75  42  30 W5        29.89R
LEWISTOWN      MOCLDY    70  41  34 E9        30.01S
N BAR RANCH      N/A     70  34  26 CALM      30.07S
CHINOOK          N/A     72  48  43 E7        29.86S
FORT BENTON      N/A     81  37  21 SW6       29.96R
$$

MTZ017>020-022>027-061-062-290500-
NORTHEAST MONTANA

CITY           SKY/WX    TMP DP  RH WIND       PRES   REMARKS
GLASGOW        CLOUDY    68  41  37 E12       29.91S HAZE
JORDAN           N/A     69  40  34 E8        29.94S
SIDNEY         PTCLDY    64  46  52 W5        29.93S
WOLF POINT     CLOUDY    63  45  51 CALM      29.92R HAZE
PLENTYWOOD       N/A     73  46  38 CALM      29.91F
POPLAR           N/A     72  43  35 E5        29.92S
$$

MTZ028>42-056>058-290500-
SOUTHCENTRAL AND SOUTHEAST MONTANA

CITY           SKY/WX    TMP DP  RH WIND       PRES   REMARKS
BAKER          CLOUDY    64  46  52 CALM      30.03R HAZE
BILLINGS       MOCLDY    78  40  25 SE6       30.02S
LIVINGSTON     PTCLDY    67  40  37 CALM      30.05R
MILES CITY     MOCLDY    71  42  35 SE8       29.97S HAZE
FORSYTH          N/A     73  37  27 SE5       29.97S
$$

REGIONAL REPORTS...DAKOTAS

CITY           SKY/WX    TMP DP  RH WIND       PRES   REMARKS
WILLISTON      MOCLDY    68  47  46 S3        29.92R HAZE
MINOT          PTCLDY    68  61  78 SE6       29.88S
DICKINSON      MOCLDY    65  50  58 W7        29.97R
BISMARCK       CLEAR     70  66  87 SE3       29.91S
GRAND FORKS    PTCLDY    69  67  93 S9        29.86S
FARGO          CLEAR     72  64  76 S17       29.92S
BUFFALO SD       N/A     66  50  56 W7        29.98S
RAPID CITY     CLEAR     63  58  83 CALM      30.07S
$$

REGIONAL REPORTS...WYOMING/IDAHO/WASHINGTON

CITY           SKY/WX    TMP DP  RH WIND       PRES   REMARKS
GILLETTE       MOCLDY    59  47  64 SW5       30.13R
SHERIDAN       PTCLDY    61  48  62 S5        30.08F
BUFFALO WY     CLEAR     68  42  38 W9        30.18S
CODY           MOCLDY    70  39  32 CALM      30.14S
YELLOWSTONE LA   N/A     47  37  68 CALM      30.38R
IDAHO FALLS    PTCLDY    76  40  27 S10       30.09R
SALMON         CLOUDY    73  43  33 E3        30.02S
BOISE          CLOUDY    80  44  27 SE3       29.89R
SPOKANE        CLOUDY    75  42  30 CALM      29.90F
$$

REGIONAL REPORTS...ALBERTA

CITY           SKY/WX    TMP DP  RH WIND       PRES   REMARKS
$$

REGIONAL REPORTS...SASKATCHEWAN

CITY           SKY/WX    TMP DP  RH WIND       PRES   REMARKS
$$



USA.gov is the U.S. government's official web portal to all federal, state and local government web resources and services.